ProjectID,Date,Electric Generation,Electric Utility Import,Facility Electric Load
,YYYY-MM-DD,kW,kW,kW
309,2016-04-01,0.0,56.01521739130435,56.01521739130435
309,2016-04-02,0.0,0.0,0.0
309,2016-04-03,0.0,0.0,0.0
309,2016-04-04,0.0,188.161125,188.161125
309,2016-04-05,1.8497500000000002,254.83558333333335,297.0361666666667
309,2016-04-06,1.1669583333333333,216.33062500000003,309.54287500000004
309,2016-04-07,0.0,207.65770833333332,306.695875
309,2016-04-08,0.0,208.341,308.5655
309,2016-04-09,0.0,217.92216666666664,318.27904166666667
309,2016-04-10,0.0,210.7035,311.0582916666667
309,2016-04-11,0.0,214.84512500000002,315.15566666666666
309,2016-04-12,0.0,214.73404166666668,315.088625
309,2016-04-13,0.0,211.80416666666667,312.141125
309,2016-04-14,0.0,212.96808333333334,313.33158333333336
309,2016-04-15,0.0,206.51458333333335,306.85812500000003
309,2016-04-16,0.0,202.18550000000002,301.6485
309,2016-04-17,0.0,200.77216666666666,301.139375
309,2016-04-18,27.036500000000004,192.22287500000002,315.45025000000004
309,2016-04-19,14.727875,265.46591666666666,313.636625
309,2016-04-20,26.59566666666667,227.76795833333333,300.35725
309,2016-04-21,44.28908333333333,173.57845833333332,318.169625
309,2016-04-22,48.282250000000005,198.38683333333333,342.82525
309,2016-04-23,9.7035,217.61595833333334,327.67058333333335
309,2016-04-24,0.0,204.28066666666666,304.6285
309,2016-04-25,0.0,201.38470833333335,301.7405416666667
309,2016-04-26,23.882250000000003,195.24929166666666,319.4775416666667
309,2016-04-27,41.480541666666674,169.12708333333333,310.9449166666667
309,2016-04-28,35.94020833333334,176.74370833333333,300.495625
309,2016-04-29,45.77370833333333,168.1715,314.2865416666667
309,2016-04-30,45.486833333333344,164.62570833333334,310.45970833333337
309,2016-05-01,43.442,183.22225,327.03249999999997
309,2016-05-02,45.853208333333335,182.39374999999998,328.5953333333333
309,2016-05-03,51.62654166666667,182.601375,334.58208333333334
309,2016-05-04,51.158458333333336,180.7686666666667,332.28645833333337
309,2016-05-05,44.77045833333333,178.81245833333332,319.77104166666663
309,2016-05-06,30.868,218.50620833333335,321.47883333333334
309,2016-05-07,38.48841666666666,172.431375,302.9135416666667
309,2016-05-08,41.14983333333333,161.15004166666668,302.6538333333334
309,2016-05-09,33.994416666666666,183.04866666666666,304.10470833333335
309,2016-05-10,43.745375,164.40133333333333,308.50124999999997
309,2016-05-11,37.187625,161.884625,299.43529166666667
309,2016-05-12,43.542,170.04095833333335,308.8439583333334
309,2016-05-13,28.367333333333335,221.831875,320.25483333333335
309,2016-05-14,0.0,297.73475,297.73475
309,2016-05-15,0.0,289.90825,289.90825
309,2016-05-16,0.0,291.551375,291.551375
309,2016-05-17,12.540791666666665,265.50212500000004,298.94208333333336
309,2016-05-18,29.32641666666667,207.8562916666667,299.90325
309,2016-05-19,23.915333333333336,180.51733333333334,304.76175
309,2016-05-20,28.137666666666675,169.43825,291.88779166666666
309,2016-05-21,40.768499999999996,160.74516666666668,301.880375
309,2016-05-22,38.64991666666668,157.60204166666668,296.5478333333334
309,2016-05-23,45.00674999999999,168.25133333333335,313.642625
309,2016-05-24,46.90016666666667,177.45275,324.71770833333335
309,2016-05-25,39.48466666666666,213.62220833333333,335.19779166666666
309,2016-05-26,6.509541666666667,321.7409166666667,373.6287916666667
309,2016-05-27,9.284083333333333,393.1069166666667,451.18075
309,2016-05-28,0.0,438.9201666666667,508.2023750000001
309,2016-05-29,0.0,476.24441666666667,476.24441666666667
309,2016-05-30,0.0,504.70487499999996,504.70487499999996
309,2016-05-31,14.616791666666666,483.3915833333333,524.3389999999999
309,2016-06-01,1.9691666666666665,411.998,491.2185416666666
309,2016-06-02,0.0,319.07783333333333,406.1845
309,2016-06-03,8.811,282.498625,363.35025
309,2016-06-04,0.0,340.3353333333333,423.049375
309,2016-06-05,0.0,313.63258333333334,396.73987500000004
309,2016-06-06,7.6540833333333325,328.65412499999996,404.5354583333333
309,2016-06-07,0.0,349.8965416666667,441.19058333333334
309,2016-06-08,0.0,251.74933333333334,333.99570833333337
309,2016-06-09,11.735541666666668,205.82637499999998,293.8899583333333
309,2016-06-10,6.2015416666666665,204.33045833333333,293.61945833333334
309,2016-06-11,0.0,354.9424166666667,366.5984583333334
309,2016-06-12,6.543875,388.5257916666667,427.5287916666667
309,2016-06-13,0.0,268.49933333333337,335.41195833333336
309,2016-06-14,0.0,237.21666666666667,337.58295833333335
309,2016-06-15,0.0,288.18962500000004,388.5345833333334
309,2016-06-16,0.0,316.10495833333334,416.4458333333333
309,2016-06-17,0.0,296.66520833333334,388.65083333333337
309,2016-06-18,0.0,295.85341666666665,394.0974583333333
309,2016-06-19,0.0,319.175,414.2319166666667
309,2016-06-20,0.0,187.21254166666665,195.30991666666665
309,2016-06-21,0.0,186.26241666666667,186.26241666666667
309,2016-06-22,0.0,173.12362499999998,173.12362499999998
309,2016-06-23,0.0,172.77854166666668,172.77854166666668
309,2016-06-24,0.0,166.074875,166.074875
309,2016-06-25,0.0,163.352125,163.352125
309,2016-06-26,0.0,161.80829166666666,161.80829166666666
309,2016-06-27,0.0,173.03195833333334,173.03195833333334
309,2016-06-28,0.0,177.29162499999998,177.29162499999998
309,2016-06-29,0.0,165.57429166666665,165.57429166666665
309,2016-06-30,0.0,163.105625,163.105625
309,2016-07-01,0.0,172.28829166666665,172.28829166666665
309,2016-07-02,0.0,127.32704166666667,127.32704166666667
309,2016-07-03,0.0,119.32370833333333,119.32370833333333
309,2016-07-04,0.0,137.20208333333332,137.20208333333332
309,2016-07-05,0.0,190.13545833333333,190.13545833333333
309,2016-07-06,0.0,253.007625,253.007625
309,2016-07-07,0.0,276.04583333333335,276.04583333333335
309,2016-07-08,0.0,246.66054166666666,246.66054166666666
309,2016-07-09,0.0,161.454875,161.454875
309,2016-07-10,0.0,149.62158333333335,149.62158333333335
309,2016-07-11,0.0,145.60070833333333,145.60070833333333
309,2016-07-12,0.0,165.90558333333334,165.90558333333334
309,2016-07-13,0.0,195.57500000000002,195.57500000000002
309,2016-07-14,0.0,245.46316666666667,245.46316666666667
309,2016-07-15,0.0,264.8402916666667,264.8402916666667
309,2016-07-16,0.0,234.19445833333336,234.19445833333336
309,2016-07-17,0.0,237.82637499999998,237.82637499999998
309,2016-07-18,0.0,263.3585,263.3585
309,2016-07-19,0.0,206.42145833333333,206.42145833333333
309,2016-07-20,2.3275,183.34095833333333,185.66845833333332
309,2016-07-21,0.0,216.10975,216.10975
309,2016-07-22,0.0,256.4916666666667,256.4916666666667
309,2016-07-23,0.0,273.04991666666666,273.04991666666666
309,2016-07-24,0.0,277.61875000000003,277.61875000000003
309,2016-07-25,0.0,289.82775,289.82775
309,2016-07-26,0.0,254.088875,254.088875
309,2016-07-27,0.0,263.02983333333333,263.02983333333333
309,2016-07-28,0.0,278.91316666666665,278.91316666666665
309,2016-07-29,0.0,365.75066666666663,399.13812499999995
309,2016-07-30,0.0,504.097875,604.4455
309,2016-07-31,0.0,490.2555,590.5390833333333
309,2016-08-01,2.382166666666667,433.565875,500.9737083333333
309,2016-08-02,0.0,404.48754166666663,436.2946666666666
309,2016-08-03,0.0,369.870125,401.78404166666667
309,2016-08-04,0.0,384.628375,425.51525
309,2016-08-05,0.0,414.0930416666667,445.66450000000003
309,2016-08-06,0.0,506.17225,537.5766666666667
309,2016-08-07,0.0,466.17775,500.50554166666666
309,2016-08-08,0.0,499.35341666666665,539.5132916666666
309,2016-08-09,0.0,518.5194166666666,552.2279166666666
309,2016-08-10,0.0,615.0465,650.417125
309,2016-08-11,0.0,714.8770833333333,730.51225
309,2016-08-12,0.0,701.344375,705.2340416666667
309,2016-08-13,0.0,702.0659166666666,702.0659166666666
309,2016-08-14,5.021375,310.825,315.84637499999997
309,2016-08-15,2.51675,295.92783333333335,298.44458333333336
309,2016-08-16,6.352291666666666,304.282,310.6342916666666
309,2016-08-17,2.5130416666666666,316.7187916666667,327.23383333333334
309,2016-08-18,7.990833333333335,550.711875,582.2410416666667
309,2016-08-19,9.7295,592.4889166666667,618.312625
309,2016-08-20,0.0,437.66383333333334,504.570875
309,2016-08-21,0.0,273.58616666666666,373.9098333333333
309,2016-08-22,30.84658333333333,280.534,406.79041666666666
309,2016-08-23,45.34600000000001,291.44716666666665,412.041
309,2016-08-24,42.396333333333324,383.145125,495.836375
309,2016-08-25,60.451000000000015,383.50695833333333,544.2867916666667
309,2016-08-26,60.40687499999999,478.4354583333333,638.9759166666666
309,2016-08-27,60.47566666666666,422.44233333333335,583.2503750000001
309,2016-08-28,60.413875,431.56391666666667,592.2094583333334
309,2016-08-29,60.37758333333333,455.4034583333334,615.3244166666667
309,2016-08-30,58.751749999999994,408.2722083333333,565.4947916666666
309,2016-08-31,51.72225,442.7437916666667,581.164125
309,2016-09-01,57.29104166666667,396.07087499999994,549.0153333333333
309,2016-09-02,60.407625,275.509,436.28433333333334
309,2016-09-03,60.49933333333332,232.87008333333333,393.72795833333333
309,2016-09-04,60.343916666666665,210.25833333333333,370.9522083333333
309,2016-09-05,60.123999999999995,239.8445416666667,400.305125
309,2016-09-06,58.981500000000004,299.9270833333333,459.22225
309,2016-09-07,58.98200000000002,350.834,510.15812500000004
309,2016-09-08,55.805125,470.36741666666666,626.496
309,2016-09-09,53.180749999999996,583.377125,736.87225
309,2016-09-10,54.49533333333333,599.4667083333333,754.2873749999999
309,2016-09-11,55.67466666666666,455.88191666666665,611.8889166666665
309,2016-09-12,58.07025000000001,283.00066666666663,441.4004166666666
309,2016-09-13,58.962583333333335,279.298625,438.5945416666667
309,2016-09-14,51.72629166666667,342.83679166666667,481.83883333333335
309,2016-09-15,60.43520833333334,236.50491666666667,397.2957916666667
309,2016-09-16,60.38600000000002,211.69654166666666,372.456875
309,2016-09-17,60.447250000000004,211.441,372.279125
309,2016-09-18,60.37233333333333,312.15416666666664,472.88154166666664
309,2016-09-19,60.37170833333334,346.6965416666667,507.4064166666667
309,2016-09-20,32.761541666666666,156.95837500000002,244.07445833333335
309,2016-09-21,30.180125,207.32708333333335,287.66808333333336
309,2016-09-22,60.39691666666667,304.6673333333333,465.3478333333333
309,2016-09-23,60.386874999999996,333.07095833333335,493.8155416666667
309,2016-09-24,60.43958333333334,229.52987499999998,390.3507916666667
309,2016-09-25,39.29516666666666,229.819375,336.041625
309,2016-09-26,34.377541666666666,236.46175000000002,328.1656666666667
309,2016-09-27,60.3785,210.85350000000003,371.57075000000003
309,2016-09-28,60.41879166666666,197.08333333333334,357.8375
309,2016-09-29,52.35170833333334,182.88816666666665,335.55062499999997
309,2016-09-30,46.4725,184.06179166666666,330.42354166666667
309,2016-10-01,48.486124999999994,184.4645833333333,333.28066666666666
309,2016-10-02,44.51475,187.72433333333333,332.55804166666667
309,2016-10-03,46.90008333333335,186.01308333333336,333.2629166666667
309,2016-10-04,47.97420833333333,199.27979166666668,347.5835
309,2016-10-05,48.85958333333334,182.48325,331.686875
309,2016-10-06,48.12454166666666,179.96533333333332,327.6708333333333
309,2016-10-07,52.33175000000001,183.97083333333333,336.6403333333334
309,2016-10-08,59.263500000000015,175.10825,334.763875
309,2016-10-09,54.681749999999994,188.39783333333332,343.45354166666664
309,2016-10-10,47.71829166666666,173.98195833333332,321.9060833333333
309,2016-10-11,43.39066666666667,184.53258333333335,321.9333333333334
309,2016-10-12,56.97333333333332,173.401375,330.7352916666666
309,2016-10-13,44.067499999999995,195.6355,335.8803333333333
309,2016-10-14,46.35691666666667,179.2061666666667,325.89104166666664
309,2016-10-15,44.45920833333332,172.09033333333332,316.8551666666666
309,2016-10-16,45.331375,178.45341666666664,323.29929166666665
309,2016-10-17,26.885499999999997,261.45275,334.3308333333333
309,2016-10-18,60.35758333333333,236.57566666666665,397.278375
309,2016-10-19,60.33570833333335,265.9604166666667,426.6275833333334
309,2016-10-20,60.330833333333324,207.56591666666668,368.2380416666667
309,2016-10-21,60.296708333333335,221.82158333333334,382.47283333333337
309,2016-10-22,59.39129166666668,186.52716666666666,346.27212499999996
309,2016-10-23,43.08904166666667,173.61045833333333,317.05
309,2016-10-24,46.22104166666667,177.19229166666665,323.77754166666665
309,2016-10-25,46.49908333333334,187.15004166666665,334.0158333333334
309,2016-10-26,43.88241666666667,182.76533333333336,326.9475
309,2016-10-27,44.3355,194.27358333333333,338.948375
309,2016-10-28,39.98787500000001,192.68954166666666,324.39700000000005
309,2016-10-29,45.26683333333333,181.59929166666666,327.1768333333333
309,2016-10-30,47.67987499999999,192.81041666666667,340.8637083333333
309,2016-10-31,57.986250000000005,183.73483333333334,342.0889166666667
309,2016-11-01,57.58825000000001,183.516625,341.438125
309,2016-11-02,54.31354166666667,181.12558333333334,331.28645833333337
309,2016-11-03,59.14695833333332,183.01808333333335,342.5059583333334
309,2016-11-04,48.199041666666666,179.06245833333332,327.5922916666667
309,2016-11-05,47.05279166666666,181.64441666666667,329.0475
309,2016-11-06,57.102833333333315,179.44858333333332,336.89491666666663
309,2016-11-07,51.502375,188.58966666666666,340.42741666666666
309,2016-11-08,48.347958333333345,195.84158333333335,344.5523333333334
309,2016-11-09,43.57216666666667,163.67291666666668,289.8294166666667
309,2016-11-10,0.0,58.972125,89.14225
309,2016-11-11,0.0,65.74925,95.89850000000001
309,2016-11-12,0.0,46.116625,88.569875
309,2016-11-13,0.0,50.460375,90.32945833333332
309,2016-11-14,0.0,50.113125,94.62258333333332
309,2016-11-15,0.0,100.44654166666668,123.94116666666667
309,2016-11-16,28.02691666666667,166.21104166666666,231.864625
309,2016-11-17,60.97029166666666,165.84233333333333,327.1420833333333
309,2016-11-18,59.13741666666667,170.88120833333335,329.569875
309,2016-11-19,62.482958333333336,165.02495833333333,327.87700000000007
309,2016-11-20,60.87516666666667,184.80279166666665,345.98383333333334
309,2016-11-21,64.99891666666666,183.86183333333335,349.21595833333333
309,2016-11-22,60.31070833333334,180.40129166666668,341.03904166666666
309,2016-11-23,57.16770833333334,181.988875,339.5127916666667
309,2016-11-24,56.687374999999996,175.91458333333333,332.9175
309,2016-11-25,61.127625,170.44783333333334,331.9065416666666
309,2016-11-26,56.705583333333344,168.98604166666667,326.0462083333333
309,2016-11-27,57.61275,180.77641666666668,338.74958333333336
309,2016-11-28,58.18333333333333,179.254875,337.72179166666666
309,2016-11-29,66.486375,180.229875,346.94216666666665
309,2016-11-30,60.96175,178.00766666666667,339.18258333333335
309,2016-12-01,60.92420833333333,175.19233333333332,335.8415
309,2016-12-02,60.97941666666666,171.65770833333332,332.62362499999995
309,2016-12-03,58.932291666666664,170.51454166666667,329.67216666666667
309,2016-12-04,58.90495833333333,173.1353333333333,332.4229583333333
309,2016-12-05,62.52445833333334,176.2695,339.01141666666666
309,2016-12-06,63.31625,175.70562500000003,339.0396666666667
309,2016-12-07,58.85116666666667,179.04441666666665,337.17650000000003
309,2016-12-08,60.900666666666666,178.66324999999998,339.42625
309,2016-12-09,60.08591666666666,178.14304166666668,338.4664583333333
309,2016-12-10,59.93920833333333,176.36666666666667,336.64120833333334
309,2016-12-11,58.90045833333334,176.41037500000002,335.6058750000001
309,2016-12-12,43.32975,214.57091666666668,332.1915416666667
309,2016-12-13,57.026833333333336,180.25554166666666,337.55420833333335
309,2016-12-14,58.1775,182.15762500000002,340.2455
309,2016-12-15,56.50958333333333,190.167375,342.2787083333333
309,2016-12-16,65.01929166666666,189.45766666666668,354.80575
309,2016-12-17,73.406125,182.3785,356.1811666666667
309,2016-12-18,62.96745833333333,185.3540833333333,348.3963749999999
309,2016-12-19,59.14937499999999,180.53066666666666,340.0305833333333
309,2016-12-20,54.626875000000005,182.91458333333333,333.3145833333333
309,2016-12-21,60.57654166666666,176.99308333333332,337.9216666666666
309,2016-12-22,63.85158333333334,176.495125,340.6575
309,2016-12-23,58.593041666666664,173.69579166666665,332.5973333333333
309,2016-12-24,58.453916666666665,173.63404166666666,332.405
309,2016-12-25,50.04066666666666,163.56741666666667,313.9834166666667
309,2016-12-26,55.297083333333326,170.144375,325.74570833333337
309,2016-12-27,53.22225000000001,164.49095833333334,317.960375
309,2016-12-28,54.65608333333333,169.07920833333333,324.055
309,2016-12-29,61.47675,178.96316666666667,340.5672083333333
309,2016-12-30,51.048541666666665,175.81112499999998,326.85733333333326
309,2016-12-31,49.88308333333333,171.691,321.93629166666665
309,2017-01-01,53.57225,169.94454166666665,323.8505
309,2017-01-02,62.17666666666668,186.36945833333334,348.89433333333335
309,2017-01-03,65.93954166666666,186.96400000000003,353.03075
309,2017-01-04,56.48624999999999,179.79725,336.1956666666666
309,2017-01-05,58.17441666666667,177.7215,336.2332916666667
309,2017-01-06,57.729375000000005,176.44654166666666,334.513375
309,2017-01-07,65.98045833333333,187.40629166666668,353.71591666666666
309,2017-01-08,59.50212500000001,185.57558333333336,345.36991666666665
309,2017-01-09,58.09420833333334,186.46945833333334,344.8658750000001
309,2017-01-10,46.944375,224.4417083333333,337.98249999999996
309,2017-01-11,57.055125,175.5979166666667,332.99508333333335
309,2017-01-12,56.636041666666664,171.93204166666666,328.89374999999995
309,2017-01-13,55.28066666666668,171.45137499999998,327.0565416666667
309,2017-01-14,57.30404166666668,169.46875,327.0901666666667
309,2017-01-15,13.280166666666666,247.52841666666666,308.8989583333333
309,2017-01-16,32.66445833333333,241.03679166666666,311.312
309,2017-01-17,60.26804166666667,176.02908333333335,336.65408333333335
309,2017-01-18,62.729791666666664,172.63195833333336,335.6494583333333
309,2017-01-19,60.98733333333334,170.39933333333332,331.71483333333333
309,2017-01-20,64.762625,176.55345833333334,341.6290416666667
309,2017-01-21,63.38945833333333,169.31816666666666,333.0225833333333
309,2017-01-22,63.24933333333333,175.81804166666666,339.3335833333333
309,2017-01-23,61.643166666666666,177.89925000000002,339.8580416666667
309,2017-01-24,61.933416666666666,177.96604166666668,339.83770833333335
309,2017-01-25,54.356875,174.918,329.58620833333333
309,2017-01-26,58.50516666666667,171.32091666666668,330.185875
309,2017-01-27,56.63075,172.50904166666666,329.4594166666667
309,2017-01-28,59.759833333333326,165.01808333333335,325.08933333333334
309,2017-01-29,51.30241666666668,169.66804166666665,321.2914166666667
309,2017-01-30,54.867999999999995,170.87358333333336,326.069625
309,2017-01-31,59.577374999999996,180.56741666666667,340.44212500000003
309,2017-02-01,53.195125,175.67012499999998,329.2008333333333
309,2017-02-02,55.12799999999999,173.33966666666666,328.78666666666663
309,2017-02-03,52.88720833333333,165.259,318.4475
309,2017-02-04,52.27012500000001,167.61666666666667,320.23762500000004
309,2017-02-05,55.64712499999999,174.06316666666666,330.02970833333336
309,2017-02-06,50.4075,172.62091666666666,323.36791666666664
309,2017-02-07,62.30620833333334,176.9417083333333,339.5555416666666
309,2017-02-08,51.45924999999999,169.562625,321.335625
309,2017-02-09,65.74987499999999,178.10687499999997,344.1765416666666
309,2017-02-10,56.12108333333334,167.02983333333333,323.4737083333333
309,2017-02-11,51.877375,163.83266666666665,316.06083333333333
309,2017-02-12,61.17529166666667,177.245125,338.767
309,2017-02-13,52.499541666666666,173.190875,326.03566666666666
309,2017-02-14,5.570166666666666,276.71049999999997,310.29904166666665
309,2017-02-15,29.719083333333334,202.90766666666664,270.21166666666664
309,2017-02-16,53.03020833333334,168.70141666666666,321.940375
309,2017-02-17,51.156625,161.704125,313.1577916666667
309,2017-02-18,49.274708333333336,159.40691666666666,309.00987499999997
309,2017-02-19,48.632958333333335,149.863125,298.81416666666667
309,2017-02-20,47.48020833333333,162.61525,310.3895416666667
309,2017-02-21,48.51979166666667,171.53745833333335,320.3672916666667
309,2017-02-22,51.13595833333333,169.89520833333333,321.35337499999997
309,2017-02-23,49.334125,165.34720833333333,314.95425
309,2017-02-24,48.67516666666668,159.37495833333332,308.3835416666667
309,2017-02-25,49.184625000000004,161.93608333333333,311.461
309,2017-02-26,50.33408333333333,170.51183333333333,321.1152083333333
309,2017-02-27,54.43345833333333,173.73191666666665,328.4537916666667
309,2017-02-28,53.53766666666667,174.5375,328.36812499999996
309,2017-03-01,57.10870833333333,176.185375,333.608375
309,2017-03-02,59.90629166666667,172.12708333333333,332.35995833333334
309,2017-03-03,57.192416666666674,176.08383333333333,333.6
309,2017-03-04,56.607291666666676,173.713125,330.578125
309,2017-03-05,54.61833333333334,175.766625,330.5992083333333
309,2017-03-06,59.86520833333335,179.16600000000003,339.310375
309,2017-03-07,59.389708333333346,178.466625,338.1773333333333
309,2017-03-08,50.39795833333334,173.573,324.28583333333336
309,2017-03-09,52.93983333333333,173.17991666666668,325.4356666666667
309,2017-03-10,60.00579166666666,183.28470833333333,343.633625
309,2017-03-11,55.382958333333335,181.86591666666666,337.5522916666667
309,2017-03-12,56.38033333333333,182.40758333333335,339.0352916666667
309,2017-03-13,53.50758333333332,182.88058333333333,336.716625
309,2017-03-14,69.94808333333334,200.50970833333335,370.20183333333335
309,2017-03-15,58.640874999999994,186.525,345.44100000000003
309,2017-03-16,58.08262500000001,179.141,337.5338333333333
309,2017-03-17,56.11870833333333,180.56383333333335,337.0081666666667
309,2017-03-18,14.286166666666666,268.583875,331.331375
309,2017-03-19,0.0,314.0575833333333,314.0575833333333
309,2017-03-20,34.36445833333333,239.31454166666666,328.02716666666663
309,2017-03-21,58.076083333333344,177.51170833333333,335.900125
309,2017-03-22,51.763958333333335,172.62829166666666,324.720125
309,2017-03-23,55.4135,175.28891666666667,330.92779166666674
309,2017-03-24,57.92883333333333,179.57787499999998,337.67370833333337
309,2017-03-25,55.639916666666664,169.599375,325.5484583333333
309,2017-03-26,55.38958333333334,178.7937916666667,334.42475
309,2017-03-27,59.178333333333335,184.71733333333336,344.16179166666666
309,2017-03-28,62.21120833333333,184.79933333333335,347.291375
309,2017-03-29,52.73612499999999,183.13341666666668,336.1995416666666
309,2017-03-30,53.58416666666667,184.01591666666664,337.86275
309,2017-03-31,59.43508333333333,185.46670833333334,345.17116666666664
309,2017-04-01,51.03975,176.9104166666667,328.29387500000007
309,2017-04-02,49.459708333333346,167.25141666666667,316.98541666666665
309,2017-04-03,51.89516666666666,161.93054166666667,314.12625
309,2017-04-04,55.238625000000006,171.20691666666667,326.64316666666673
309,2017-04-05,37.99270833333333,158.69174999999998,296.98658333333333
309,2017-04-06,61.05958333333333,174.77904166666667,335.732625
309,2017-04-07,55.73391666666666,174.50004166666668,329.9882083333333
309,2017-04-08,48.422125,173.53125,322.2782916666667
309,2017-04-09,47.471166666666655,162.31458333333333,310.085
309,2017-04-10,48.79420833333333,163.43954166666666,312.53683333333333
309,2017-04-11,52.66483333333334,174.46587499999998,327.4323333333333
309,2017-04-12,56.113,177.52229166666666,333.94508333333334
309,2017-04-13,52.65195833333333,165.43754166666668,318.3870833333333
309,2017-04-14,49.11858333333333,160.96245833333333,310.40120833333333
309,2017-04-15,49.65420833333334,161.66049999999998,311.64604166666663
309,2017-04-16,60.85529166666668,169.21320833333334,330.3931666666667
309,2017-04-17,68.01066666666667,169.12495833333332,337.3827083333333